Lexington Weather

Lexington, Massachusetts, USA

39°F
3/30/2020 8:27am 
  • Lexington Conditions: Mist, Overcast
  • Temperature: 39.4°F / 4.1°C 
  • Dew Point: 38.7°F 
  • Relative Humidity: 97
  • Wind: Wind from NNW NNW 2 mph, 10-min avg: 3 mph, gust: 7 mph
  • Barometer: 29.96 in Steady
  • Visibility: 2 miles
  • Rain Today: 0.02 in
  •   

Regional Weather Roundup
for Boston / Norton, MA

        
000
ASUS41 KBOX 300604
RWRBOX

REGIONAL WEATHER ROUNDUP
NATIONAL WEATHER SERVICE BOSTON/NORTON MA
200 AM EDT MON MAR 30 2020

NOTE:  "FAIR" INDICATES FEW OR NO CLOUDS BELOW 12,000 FEET WITH NO 
SIGNIFICANT WEATHER AND/OR OBSTRUCTIONS TO VISIBILITY.

MAZALL-300700-
EASTERN MASSACHUSETTS
  
CITY           SKY/WX    TMP DP  RH WIND       PRES   REMARKS
BOSTON         NOT AVBL                                               
BEVERLY        CLOUDY    41  38  89 NE12G24   29.98R                  
LAWRENCE       CLOUDY    39  38  96 NE13      30.00F FOG     WCI  31  
BEDFORD        CLOUDY    41  37  86 NE10      29.97R                  
BLUE HILL        N/A     38  38 100 NE18G32   29.91S WCI  28          
NORWOOD        CLOUDY    42  38  85 NE16G24   29.96R FOG              
MARSHFIELD     CLOUDY    43  43 100 NE13G22   29.92F                  
PLYMOUTH       CLOUDY    41  40  96 NE17G25     N/A                   
TAUNTON        CLOUDY    41  39  93 N7G20     29.91F FOG              
NEW BEDFORD    CLOUDY    40  40 100 N14G23    29.88S FOG              
$$

MAZALL-300700-
CAPE COD AND THE ISLANDS
  
CITY           SKY/WX    TMP DP  RH WIND       PRES   REMARKS
FALMOUTH       CLOUDY    43  43 100 NE13G24   29.86S FOG              
HYANNIS        CLOUDY    45  42  89 NE15G21   29.83F FOG              
CHATHAM        CLOUDY    44  42  93 NE13      29.86S FOG              
PROVINCETOWN   CLOUDY    42  41  96 NE17G25   29.91R FOG              
NANTUCKET      CLOUDY    45  44  97 N18       29.79F FOG              
MARTHAS VNYRD  CLOUDY    44  43  96 N14       29.84F                  
$$
 
MAZALL-300700-
CENTRAL AND WESTERN MASSACHUSETTS
  
CITY           SKY/WX    TMP DP  RH WIND       PRES   REMARKS
WORCESTER      FOG       36  34  92 NE16G22   29.94R VSB 1/4 WCI  26  
6HR MIN TEMP:  36; 6HR MAX TEMP:  37; 6HR PCP:  0.23;                

FITCHBURG      CLOUDY    38  35  89 VRB6      30.01R                  
ORANGE         CLOUDY    39  35  86 N9        30.00R                  
SPRINGFIELD    CLOUDY    39  37  95 NE10      29.95S WCI  32          
WESTFIELD      CLOUDY    39  36  89 N10       29.96R                  
NORTH ADAMS    CLOUDY    39  34  82 E8        29.98R                  
PITTSFIELD     CLOUDY    37  34  89 NE6       29.94R                  
$$
 
RIZALL-300700-
RHODE ISLAND
  
CITY           SKY/WX    TMP DP  RH WIND       PRES   REMARKS
PROVIDENCE     CLOUDY    41  40  96 N18G28    29.92R                  
6HR MIN TEMP:  41; 6HR MAX TEMP:  42; 6HR PCP:  0.23;                

NEWPORT        CLOUDY    42  39  89 N18G25    29.88R                  
BLOCK ISLAND   CLOUDY    41  40  96 NE13G22   29.89S                  
SMITHFIELD     LGT RAIN  39  39 100 NE14      29.93S FOG     WCI  31  
WESTERLY       CLOUDY    45  39  79 N12       29.90R                  
$$
 
CTZALL-300700-
CONNECTICUT
  
CITY           SKY/WX    TMP DP  RH WIND       PRES   REMARKS
BRADLEY INTL   CLOUDY    39  36  89 N10       29.96R                  
6HR MIN TEMP:  39; 6HR MAX TEMP:  43; 6HR PCP:  0.16;                

HARTFORD       CLOUDY    41  37  86 N12       29.94F                  
BRIDGEPORT     CLOUDY    44  39  82 NE13      29.91R                  
DANBURY        CLOUDY    41  38  89 E5        29.92S                  
GROTON         CLOUDY    41  41 100 N13       29.88F                  
NEW HAVEN      CLOUDY    43  39  86 N17G25    29.91R                  
CHESTER        CLOUDY    41  39  93 N10G16    29.90S                  
MERIDEN        CLOUDY    41  37  86 N12       29.93S                  
WILLIMANTIC    CLOUDY    40  38  93 N9        29.92F                  
OXFORD         CLOUDY    39  37  92 NE12G22   29.91R WCI  32          
$$

MEZ002-015-021-024-NHZ003-005-008-011-012-014-VTZ005-008-300700-
NORTHERN NEW ENGLAND
  
CITY           SKY/WX    TMP DP  RH WIND       PRES   REMARKS
PORTLAND ME    CLOUDY    38  34  85 NE15      30.06F WCI  29          
6HR MIN TEMP:  37; 6HR MAX TEMP:  40; 6HR PCP:  0.56;                

BANGOR ME      LGT SNOW  33  31  92 E7        30.15F VSB 1   WCI  27  
CONCORD NH     CLOUDY    36  33  89 N5        30.03S FOG              
MANCHESTER NH  CLOUDY    38  36  92 N8        30.01R FOG              
NASHUA NH      CLOUDY    38  38 100 N6        30.03R                  
PORTSMOUTH NH  CLOUDY    39  36  88 NE15G24   30.00  WCI  31          
JAFFREY NH     CLOUDY    35  34  96 VRB5      29.98R FOG     WCI  31  
KEENE NH       MIX PCPN  37  34  89 NE6       30.01R                  
BURLINGTON VT  CLOUDY    40  36  86 S8        29.92F                  
MT. WASHINGTON NOT AVBL                                               
$$

NYZ052-076-300700-
EASTERN NEW YORK
  
CITY           SKY/WX    TMP DP  RH WIND       PRES   REMARKS
ALBANY         DRIZZLE   44  39  82 NE3       29.95F                  
6HR MIN TEMP:  44; 6HR MAX TEMP:  50; 6HR PCP:  0.04;                

NEW YORK CITY  DRIZZLE   48  45  89 NE6       29.91R                  
6HR MIN TEMP:  45; 6HR MAX TEMP:  48; 6HR PCP: TRACE;                

$$
 
ANZALL-300700-
MARINE OBSERVATIONS
  
STATION/POSITION TIME  TEMP    WIND        PRES    VSBY  WAVE
                       AIR SEA DIR/SP/G                  HT/PER
                 (UTC) (F)     (DEG/KT/KT) (MB)    (MI)  (FT/S)
BOSTON BUOY      0550   42 43   50/ 21/ 25 1013.0R         7/ 7
BUZZARDS BAY     0500           10/ 24/ 25 1011.0F
NANTUCKET SOUND  0540                        N/A           2/ 3
MASS BAY-STELLWA 0504   41 42   80/ 21/ 27 1012.1F  1 7/8  8/ 8
ISLE OF SHOALS   0500   40      50/ 27/ 32 1014.7F
S OF BLOCK IS    0530      44                N/A           9/ 9
$$

......................KEY.........................
  SKY/WX - SKY CONDITION/PRESENT WEATHER
  TMP    - TEMPERATURE IN FAHRENHEIT
  DWPT   - DEWPOINT IN FAHRENHEIT
  RH     - RELATIVE HUMIDITY IN PERCENT
  WIND   - DIRECTION AND SPEED IN MPH
  PRES   - MEAN SEA LEVEL PRESSURE IN INCHES OF HG
  WCI    - WIND CHILL INDEX
  VSB    - VISIBILITY IN MILES
  HX     - HEAT INDEX
  TC     - TEMPERATURE IN CELSIUS
  VRB    - VARIABLE WIND DIRECTION
  N/A    - NOT AVAILABLE
  
      

Other recent Regional Weather Roundups

Mon Mar 30, 8:04am

Mon Mar 30, 7:04am

Mon Mar 30, 6:04am

Mon Mar 30, 5:04am

Mon Mar 30, 4:04am

Mon Mar 30, 3:05am

Mon Mar 30, 1:04am

Mon Mar 30, 12:04am

Sun Mar 29, 11:04pm

Sun Mar 29, 10:05pm

Sun Mar 29, 9:04pm

Sun Mar 29, 8:04pm

Sun Mar 29, 7:04pm

Sun Mar 29, 6:04pm

Sun Mar 29, 5:05pm

Sun Mar 29, 4:04pm

Sun Mar 29, 3:04pm

Sun Mar 29, 2:04pm

Sun Mar 29, 1:05pm

Sun Mar 29, 12:04pm

Sun Mar 29, 11:04am

Sun Mar 29, 10:04am

Sun Mar 29, 9:04am

Sun Mar 29, 8:04am

Sun Mar 29, 7:04am

Sun Mar 29, 6:04am

Sun Mar 29, 5:04am

Sun Mar 29, 4:04am

Sun Mar 29, 3:04am

Sun Mar 29, 2:04am

Sun Mar 29, 1:04am

Sun Mar 29, 12:04am

Sat Mar 28, 11:05pm

Sat Mar 28, 10:04pm

Sat Mar 28, 9:04pm

Sat Mar 28, 8:04pm

Sat Mar 28, 7:04pm

Sat Mar 28, 6:04pm

Sat Mar 28, 5:05pm

Sat Mar 28, 4:04pm

Sat Mar 28, 3:04pm

Sat Mar 28, 2:04pm

Sat Mar 28, 1:05pm

Sat Mar 28, 12:04pm

Sat Mar 28, 11:04am

Sat Mar 28, 10:04am

Sat Mar 28, 9:04am

Sat Mar 28, 8:04am

Sat Mar 28, 7:04am

Sat Mar 28, 6:04am

Sat Mar 28, 5:04am

Sat Mar 28, 4:04am

Sat Mar 28, 3:04am

Sat Mar 28, 2:04am

Sat Mar 28, 1:04am

Sat Mar 28, 12:04am

Fri Mar 27, 11:04pm

Fri Mar 27, 10:04pm

Fri Mar 27, 9:04pm

Fri Mar 27, 8:04pm

Fri Mar 27, 7:05pm

Fri Mar 27, 6:04pm

Fri Mar 27, 5:05pm

Fri Mar 27, 4:05pm

Fri Mar 27, 3:04pm

Fri Mar 27, 2:05pm

Fri Mar 27, 1:04pm

Fri Mar 27, 12:04pm

Fri Mar 27, 11:04am

Fri Mar 27, 10:04am

Fri Mar 27, 9:04am

Meta data:

ID: 9bd44aed-cabd-44a0-a7db-e9fea7dcc8b2
Link: https://api.weather.gov/products/9bd44aed-cabd-44a0-a7db-e9fea7dcc8b2